Time,TemperatureF,DewpointF,PressureIn,WindDirection,WindDirectionDegrees,WindSpeedMPH,WindSpeedGustMPH,Humidity,HourlyPrecipIn,Conditions,Clouds,dailyrainin,SolarRadiationWatts/m^2,SoftwareType,DateUTC
2013-02-17 00:04:00,44.1,40.3,30.05,North,355,0.0,4.0,86,0.00,,,0.00,0.0,meteohub,2013-02-17 08:04:00,
2013-02-17 00:09:00,44.1,40.5,30.05,North,355,0.0,3.0,87,0.00,,,0.00,0.0,meteohub,2013-02-17 08:09:00,
2013-02-17 00:14:00,44.2,41.0,30.05,NW,325,1.0,3.0,88,0.00,,,0.00,0.0,meteohub,2013-02-17 08:14:00,
2013-02-17 00:19:00,44.4,41.2,30.05,NW,325,0.0,3.0,88,0.00,,,0.00,0.0,meteohub,2013-02-17 08:19:00,
2013-02-17 00:24:00,44.4,41.2,30.05,NW,325,1.0,4.0,88,0.00,,,0.00,0.0,meteohub,2013-02-17 08:24:00,
2013-02-17 00:29:00,44.6,41.4,30.05,NW,325,1.0,4.0,88,0.00,,,0.00,0.0,meteohub,2013-02-17 08:29:00,
2013-02-17 00:34:00,44.6,41.4,30.05,NW,325,1.0,4.0,88,0.00,,,0.00,0.0,meteohub,2013-02-17 08:34:00,
2013-02-17 00:39:00,44.6,41.4,30.05,NW,325,0.0,3.0,88,0.00,,,0.00,0.0,meteohub,2013-02-17 08:39:00,
2013-02-17 00:45:00,44.4,40.8,30.05,NW,325,0.0,3.0,87,0.00,,,0.00,0.0,meteohub,2013-02-17 08:45:00,
2013-02-17 00:50:00,44.1,40.3,30.05,NW,325,1.0,3.0,86,0.00,,,0.00,0.0,meteohub,2013-02-17 08:50:00,
2013-02-17 00:55:00,43.9,39.9,30.05,NW,325,0.0,3.0,85,0.00,,,0.00,0.0,meteohub,2013-02-17 08:55:00,
2013-02-17 01:00:00,43.7,39.7,30.05,NW,325,1.0,3.0,85,0.00,,,0.00,0.0,meteohub,2013-02-17 09:00:00,
2013-02-17 01:05:00,43.5,39.6,30.05,NW,325,3.0,3.0,85,0.00,,,0.00,0.0,meteohub,2013-02-17 09:05:00,
2013-02-17 01:10:00,43.2,39.2,30.05,NNW,327,0.0,3.0,85,0.00,,,0.00,0.0,meteohub,2013-02-17 09:10:00,
2013-02-17 01:15:00,43.0,39.2,30.06,NNW,327,0.0,3.0,86,0.00,,,0.00,0.0,meteohub,2013-02-17 09:15:00,
2013-02-17 01:20:00,42.8,39.4,30.06,NNW,327,0.0,3.0,87,0.00,,,0.00,0.0,meteohub,2013-02-17 09:20:00,
2013-02-17 01:25:00,42.6,39.6,30.06,NNW,327,2.0,2.0,88,0.00,,,0.00,0.0,meteohub,2013-02-17 09:25:00,
2013-02-17 01:30:00,42.6,39.6,30.06,NNW,329,0.0,3.0,88,0.00,,,0.00,0.0,meteohub,2013-02-17 09:30:00,
2013-02-17 01:35:00,42.6,39.7,30.06,NNW,329,0.0,3.0,89,0.00,,,0.00,0.0,meteohub,2013-02-17 09:35:00,
2013-02-17 01:41:00,42.4,39.6,30.05,NW,304,2.0,3.0,89,0.00,,,0.00,0.0,meteohub,2013-02-17 09:41:00,
2013-02-17 01:46:00,42.6,40.1,30.05,NW,304,0.0,3.0,90,0.00,,,0.00,0.0,meteohub,2013-02-17 09:46:00,
2013-02-17 01:51:00,42.8,40.3,30.05,NW,304,0.0,3.0,90,0.00,,,0.00,0.0,meteohub,2013-02-17 09:51:00,
2013-02-17 01:56:00,42.8,40.3,30.05,NW,324,0.0,4.0,90,0.00,,,0.00,0.0,meteohub,2013-02-17 09:56:00,
2013-02-17 02:01:00,43.0,40.3,30.05,NW,305,0.0,4.0,90,0.00,,,0.00,0.0,meteohub,2013-02-17 10:01:00,
2013-02-17 02:06:00,43.0,40.3,30.05,NW,305,0.0,4.0,90,0.00,,,0.00,0.0,meteohub,2013-02-17 10:06:00,
2013-02-17 02:11:00,43.0,40.3,30.05,NW,305,3.0,3.0,90,0.00,,,0.00,0.0,meteohub,2013-02-17 10:11:00,
2013-02-17 02:16:00,42.8,40.3,30.04,NW,305,0.0,3.0,90,0.00,,,0.00,0.0,meteohub,2013-02-17 10:16:00,
2013-02-17 02:21:00,42.3,39.4,30.04,NW,305,0.0,3.0,89,0.00,,,0.00,0.0,meteohub,2013-02-17 10:21:00,
2013-02-17 02:27:00,42.1,39.2,30.04,NW,305,0.0,3.0,89,0.00,,,0.00,0.0,meteohub,2013-02-17 10:27:00,
2013-02-17 02:32:00,41.9,38.8,30.04,NW,305,0.0,1.0,88,0.00,,,0.00,0.0,meteohub,2013-02-17 10:32:00,
2013-02-17 02:37:00,41.9,39.0,30.04,NW,305,0.0,1.0,89,0.00,,,0.00,0.0,meteohub,2013-02-17 10:37:00,
2013-02-17 02:42:00,41.9,39.0,30.04,NW,305,1.0,1.0,89,0.00,,,0.00,0.0,meteohub,2013-02-17 10:42:00,
2013-02-17 02:47:00,42.1,39.9,30.04,NW,305,0.0,1.0,91,0.00,,,0.00,0.0,meteohub,2013-02-17 10:47:00,
2013-02-17 02:52:00,42.4,40.3,30.03,NW,305,0.0,2.0,92,0.00,,,0.00,0.0,meteohub,2013-02-17 10:52:00,
2013-02-17 02:57:00,42.4,40.3,30.04,NW,305,0.0,2.0,91,0.00,,,0.00,0.0,meteohub,2013-02-17 10:57:00,
2013-02-17 03:02:00,42.6,40.5,30.04,NNW,332,0.0,2.0,92,0.00,,,0.00,0.0,meteohub,2013-02-17 11:02:00,
2013-02-17 03:07:00,42.3,40.1,30.04,NNW,332,1.0,3.0,91,0.00,,,0.00,0.0,meteohub,2013-02-17 11:07:00,
2013-02-17 03:12:00,41.9,39.7,30.03,NNW,344,2.0,3.0,91,0.00,,,0.00,0.0,meteohub,2013-02-17 11:12:00,
2013-02-17 03:17:00,41.7,39.6,30.03,NNW,344,1.0,3.0,91,0.00,,,0.00,0.0,meteohub,2013-02-17 11:17:00,
2013-02-17 03:22:00,41.7,39.6,30.03,NNW,344,2.0,3.0,91,0.00,,,0.00,0.0,meteohub,2013-02-17 11:22:00,
2013-02-17 03:27:00,41.7,39.7,30.03,NNW,343,0.0,3.0,92,0.00,,,0.00,0.0,meteohub,2013-02-17 11:27:00,
2013-02-17 03:32:00,41.7,39.7,30.03,NNW,343,0.0,4.0,92,0.00,,,0.00,0.0,meteohub,2013-02-17 11:32:00,
2013-02-17 03:37:00,41.9,39.9,30.02,NNW,343,0.0,4.0,92,0.00,,,0.00,0.0,meteohub,2013-02-17 11:37:00,
2013-02-17 03:42:00,41.7,39.7,30.02,NNW,343,0.0,3.0,92,0.00,,,0.00,0.0,meteohub,2013-02-17 11:42:00,
2013-02-17 03:47:00,41.4,39.4,30.02,NNW,343,0.0,1.0,92,0.00,,,0.00,0.0,meteohub,2013-02-17 11:47:00,
2013-02-17 03:52:00,41.4,39.4,30.03,NNW,343,0.0,0.0,92,0.00,,,0.00,0.0,meteohub,2013-02-17 11:52:00,
2013-02-17 03:57:00,41.0,38.8,30.02,NNW,343,0.0,0.0,91,0.00,,,0.00,0.0,meteohub,2013-02-17 11:57:00,
2013-02-17 04:02:00,40.8,38.7,30.03,NNW,343,0.0,2.0,91,0.00,,,0.00,0.0,meteohub,2013-02-17 12:02:00,
2013-02-17 04:07:00,40.6,38.7,30.02,NNW,343,0.0,2.0,92,0.00,,,0.00,0.0,meteohub,2013-02-17 12:07:00,
2013-02-17 04:12:00,40.8,38.8,30.02,NNW,343,0.0,2.0,92,0.00,,,0.00,0.0,meteohub,2013-02-17 12:12:00,
2013-02-17 04:17:00,40.8,38.8,30.02,NNW,343,1.0,2.0,92,0.00,,,0.00,0.0,meteohub,2013-02-17 12:17:00,
2013-02-17 04:22:00,40.8,39.2,30.02,NNW,343,0.0,2.0,93,0.00,,,0.00,0.0,meteohub,2013-02-17 12:22:00,
2013-02-17 04:27:00,40.8,39.2,30.02,NNW,343,0.0,2.0,93,0.00,,,0.00,0.0,meteohub,2013-02-17 12:27:00,
2013-02-17 04:32:00,41.2,39.6,30.03,NNW,346,2.0,3.0,93,0.00,,,0.00,0.0,meteohub,2013-02-17 12:32:00,
2013-02-17 04:37:00,41.4,39.7,30.02,NNW,346,2.0,5.0,93,0.00,,,0.00,0.0,meteohub,2013-02-17 12:37:00,
2013-02-17 04:42:00,41.7,40.3,30.02,NNW,346,0.0,5.0,94,0.00,,,0.00,0.0,meteohub,2013-02-17 12:42:00,
2013-02-17 04:47:00,42.3,40.6,30.02,NNW,344,3.0,5.0,94,0.00,,,0.00,0.0,meteohub,2013-02-17 12:47:00,
2013-02-17 04:52:00,42.8,41.5,30.03,North,349,1.0,4.0,95,0.00,,,0.00,0.0,meteohub,2013-02-17 12:52:00,
2013-02-17 04:57:00,43.2,41.5,30.02,North,349,0.0,4.0,94,0.00,,,0.00,0.0,meteohub,2013-02-17 12:57:00,
2013-02-17 05:02:00,43.5,41.9,30.03,North,0,3.0,4.0,94,0.00,,,0.00,0.0,meteohub,2013-02-17 13:02:00,
2013-02-17 05:07:00,43.5,41.9,30.03,NNW,348,1.0,5.0,94,0.00,,,0.00,0.0,meteohub,2013-02-17 13:07:00,
2013-02-17 05:12:00,43.7,42.4,30.03,North,349,2.0,5.0,95,0.00,,,0.00,0.0,meteohub,2013-02-17 13:12:00,
2013-02-17 05:17:00,43.9,42.6,30.03,North,351,3.0,5.0,95,0.00,,,0.00,0.0,meteohub,2013-02-17 13:17:00,
2013-02-17 05:22:00,44.1,42.8,30.03,NNW,346,1.0,4.0,95,0.00,,,0.00,0.0,meteohub,2013-02-17 13:22:00,
2013-02-17 05:27:00,44.1,42.8,30.03,NNW,346,2.0,4.0,95,0.00,,,0.00,0.0,meteohub,2013-02-17 13:27:00,
2013-02-17 05:32:00,44.2,43.0,30.03,NNW,346,1.0,4.0,95,0.00,,,0.00,0.0,meteohub,2013-02-17 13:32:00,
2013-02-17 05:37:00,44.4,43.2,30.03,NNW,346,0.0,4.0,95,0.00,,,0.00,0.0,meteohub,2013-02-17 13:37:00,
2013-02-17 05:42:00,44.4,43.2,30.04,NNW,346,1.0,3.0,95,0.00,,,0.00,0.0,meteohub,2013-02-17 13:42:00,
2013-02-17 05:47:00,44.2,42.6,30.03,NNW,346,1.0,3.0,94,0.00,,,0.00,0.0,meteohub,2013-02-17 13:47:00,
2013-02-17 05:52:00,44.2,42.6,30.03,NNW,346,2.0,3.0,94,0.00,,,0.00,0.0,meteohub,2013-02-17 13:52:00,
2013-02-17 05:57:00,42.7,41.0,30.02,NNW,346,0.0,3.0,94,0.00,,,0.00,0,weatherlink.com 1.10,2013-02-17 13:57:00,
2013-02-17 06:02:00,44.1,42.4,30.03,NNW,346,1.0,3.0,94,0.00,,,0.00,0.0,meteohub,2013-02-17 14:02:00,
2013-02-17 06:07:00,44.1,42.8,30.03,NNW,346,0.0,3.0,95,0.00,,,0.00,0.0,meteohub,2013-02-17 14:07:00,
2013-02-17 06:12:00,44.1,42.8,30.03,NNW,346,0.0,2.0,95,0.00,,,0.00,0.0,meteohub,2013-02-17 14:12:00,
2013-02-17 06:17:00,44.1,42.8,30.03,NNW,346,0.0,2.0,95,0.00,,,0.00,0.0,meteohub,2013-02-17 14:17:00,
2013-02-17 06:22:00,44.2,43.0,30.03,NNW,346,0.0,2.0,95,0.00,,,0.00,0.0,meteohub,2013-02-17 14:22:00,
2013-02-17 06:27:00,44.4,43.2,30.03,NNW,346,0.0,2.0,95,0.00,,,0.00,0.0,meteohub,2013-02-17 14:27:00,
2013-02-17 06:33:00,44.4,43.2,30.04,WNW,282,0.0,2.0,95,0.00,,,0.00,0.0,meteohub,2013-02-17 14:33:00,
2013-02-17 06:38:00,44.2,43.0,30.04,WNW,282,0.0,2.0,95,0.00,,,0.00,0.0,meteohub,2013-02-17 14:38:00,
2013-02-17 06:43:00,44.1,42.8,30.04,WNW,282,0.0,2.0,95,0.00,,,0.00,0.0,meteohub,2013-02-17 14:43:00,
2013-02-17 06:48:00,44.1,42.8,30.04,WNW,282,0.0,0.0,95,0.00,,,0.00,0.0,meteohub,2013-02-17 14:48:00,
2013-02-17 06:53:00,43.9,42.6,30.04,WNW,282,0.0,0.0,95,0.00,,,0.00,0.0,meteohub,2013-02-17 14:53:00,
2013-02-17 06:58:00,43.7,42.1,30.04,WNW,282,0.0,1.0,94,0.00,,,0.00,5.0,meteohub,2013-02-17 14:58:00,
2013-02-17 07:03:00,43.5,41.9,30.04,WNW,282,0.0,1.0,94,0.00,,,0.00,9.0,meteohub,2013-02-17 15:03:00,
2013-02-17 07:08:00,43.5,42.3,30.04,WNW,282,0.0,1.0,95,0.00,,,0.00,11.0,meteohub,2013-02-17 15:08:00,
2013-02-17 07:13:00,43.5,42.3,30.04,WNW,282,0.0,2.0,95,0.00,,,0.00,12.0,meteohub,2013-02-17 15:13:00,
2013-02-17 07:19:00,43.5,42.3,30.04,WNW,282,0.0,2.0,95,0.00,,,0.00,14.0,meteohub,2013-02-17 15:19:00,
2013-02-17 07:24:00,43.5,42.3,30.04,WNW,282,0.0,2.0,95,0.00,,,0.00,19.0,meteohub,2013-02-17 15:24:00,
2013-02-17 07:29:00,43.7,42.4,30.04,WNW,282,0.0,0.0,95,0.00,,,0.00,23.0,meteohub,2013-02-17 15:29:00,
2013-02-17 07:34:00,43.7,42.4,30.04,WNW,282,0.0,0.0,95,0.00,,,0.00,28.0,meteohub,2013-02-17 15:34:00,
2013-02-17 07:39:00,43.7,42.4,30.05,WNW,282,1.0,0.0,95,0.00,,,0.00,37.0,meteohub,2013-02-17 15:39:00,
2013-02-17 07:44:00,43.9,42.6,30.04,WNW,282,0.0,1.0,95,0.00,,,0.00,58.0,meteohub,2013-02-17 15:44:00,
2013-02-17 07:49:00,44.1,42.8,30.05,WNW,282,0.0,2.0,95,0.00,,,0.00,67.0,meteohub,2013-02-17 15:49:00,
2013-02-17 07:54:00,44.2,43.0,30.05,WNW,282,0.0,2.0,95,0.00,,,0.00,65.0,meteohub,2013-02-17 15:54:00,
2013-02-17 07:59:00,44.4,43.2,30.05,WNW,282,0.0,2.0,95,0.00,,,0.00,86.0,meteohub,2013-02-17 15:59:00,
2013-02-17 08:04:00,44.6,43.3,30.05,West,273,2.0,2.0,95,0.00,,,0.00,114.0,meteohub,2013-02-17 16:04:00,
2013-02-17 08:09:00,44.8,43.9,30.05,WSW,244,0.0,3.0,96,0.00,,,0.00,86.0,meteohub,2013-02-17 16:09:00,
2013-02-17 08:15:00,45.1,44.2,30.05,WSW,244,0.0,3.0,96,0.00,,,0.00,155.0,meteohub,2013-02-17 16:15:00,
2013-02-17 08:20:00,45.5,44.6,30.05,WSW,244,1.0,3.0,96,0.00,,,0.00,77.0,meteohub,2013-02-17 16:20:00,
2013-02-17 08:25:00,45.9,44.8,30.05,WSW,244,1.0,3.0,96,0.00,,,0.00,193.0,meteohub,2013-02-17 16:25:00,
2013-02-17 08:30:00,46.2,45.1,30.05,WSW,244,0.0,2.0,96,0.00,,,0.00,204.0,meteohub,2013-02-17 16:30:00,
2013-02-17 08:35:00,46.8,45.7,30.05,WSW,244,0.0,2.0,96,0.00,,,0.00,218.0,meteohub,2013-02-17 16:35:00,
2013-02-17 08:40:00,47.3,46.2,30.05,WSW,244,0.0,2.0,96,0.00,,,0.00,176.0,meteohub,2013-02-17 16:40:00,
2013-02-17 08:45:00,47.7,46.6,30.06,SSW,200,2.0,3.0,96,0.00,,,0.00,107.0,meteohub,2013-02-17 16:45:00,
2013-02-17 08:50:00,47.8,46.8,30.05,South,171,2.0,3.0,96,0.00,,,0.00,276.0,meteohub,2013-02-17 16:50:00,
2013-02-17 08:55:00,48.0,46.9,30.05,SE,146,1.0,5.0,96,0.00,,,0.00,221.0,meteohub,2013-02-17 16:55:00,
2013-02-17 09:00:00,48.2,47.1,30.06,SE,146,1.0,5.0,96,0.00,,,0.00,158.0,meteohub,2013-02-17 17:00:00,
2013-02-17 09:05:00,48.4,47.3,30.05,SSE,154,2.0,5.0,96,0.00,,,0.00,213.0,meteohub,2013-02-17 17:05:00,
2013-02-17 09:10:00,48.7,47.7,30.05,SE,139,1.0,4.0,96,0.00,,,0.00,367.0,meteohub,2013-02-17 17:10:00,
2013-02-17 09:16:00,48.9,48.0,30.05,SE,146,0.0,4.0,96,0.00,,,0.00,369.0,meteohub,2013-02-17 17:16:00,
2013-02-17 09:21:00,49.5,48.2,30.05,SE,136,2.0,4.0,95,0.00,,,0.00,374.0,meteohub,2013-02-17 17:21:00,
2013-02-17 09:26:00,49.8,48.4,30.05,SE,129,0.0,5.0,94,0.00,,,0.00,401.0,meteohub,2013-02-17 17:26:00,
2013-02-17 09:31:00,50.4,48.6,30.05,SSE,149,0.0,5.0,93,0.00,,,0.00,452.0,meteohub,2013-02-17 17:31:00,
2013-02-17 09:36:00,50.7,48.7,30.05,SSW,195,1.0,5.0,92,0.00,,,0.00,441.0,meteohub,2013-02-17 17:36:00,
2013-02-17 09:41:00,51.3,48.6,30.05,SSW,211,2.0,4.0,90,0.00,,,0.00,489.0,meteohub,2013-02-17 17:41:00,
2013-02-17 09:46:00,51.6,48.4,30.05,West,260,4.0,6.0,88,0.00,,,0.00,462.0,meteohub,2013-02-17 17:46:00,
2013-02-17 09:51:00,52.2,48.4,30.05,SW,219,1.0,6.0,86,0.00,,,0.00,445.0,meteohub,2013-02-17 17:51:00,
2013-02-17 09:56:00,51.5,47.0,30.04,WSW,244,1.0,5.0,84,0.00,,,0.00,455,weatherlink.com 1.10,2013-02-17 17:56:00,
2013-02-17 10:01:00,52.9,47.7,30.05,WSW,237,3.0,5.0,82,0.00,,,0.00,471.0,meteohub,2013-02-17 18:01:00,
2013-02-17 10:06:00,53.2,48.0,30.05,SW,218,0.0,5.0,81,0.00,,,0.00,483.0,meteohub,2013-02-17 18:06:00,
2013-02-17 10:11:00,54.0,48.4,30.05,SW,218,0.0,4.0,80,0.00,,,0.00,497.0,meteohub,2013-02-17 18:11:00,
2013-02-17 10:17:00,54.7,48.9,30.05,South,186,1.0,4.0,80,0.00,,,0.00,504.0,meteohub,2013-02-17 18:17:00,
2013-02-17 10:22:00,55.2,47.8,30.05,SSE,163,1.0,3.0,75,0.00,,,0.00,515.0,meteohub,2013-02-17 18:22:00,
2013-02-17 10:27:00,55.8,48.7,30.04,ESE,103,0.0,3.0,76,0.00,,,0.00,527.0,meteohub,2013-02-17 18:27:00,
2013-02-17 10:32:00,56.1,48.4,30.05,South,169,1.0,5.0,74,0.00,,,0.00,536.0,meteohub,2013-02-17 18:32:00,
2013-02-17 10:37:00,56.5,48.4,30.04,SSE,161,1.0,5.0,73,0.00,,,0.00,541.0,meteohub,2013-02-17 18:37:00,
2013-02-17 10:42:00,56.7,48.2,30.04,SE,132,0.0,5.0,72,0.00,,,0.00,540.0,meteohub,2013-02-17 18:42:00,
2013-02-17 10:47:00,56.7,48.2,30.04,ESE,115,2.0,4.0,72,0.00,,,0.00,559.0,meteohub,2013-02-17 18:47:00,
2013-02-17 10:52:00,56.7,47.8,30.04,SE,144,1.0,5.0,71,0.00,,,0.00,568.0,meteohub,2013-02-17 18:52:00,
2013-02-17 10:57:00,56.8,48.4,30.04,SSW,206,3.0,5.0,72,0.00,,,0.00,578.0,meteohub,2013-02-17 18:57:00,
2013-02-17 11:02:00,57.0,47.7,30.04,SSE,154,5.0,5.0,70,0.00,,,0.00,584.0,meteohub,2013-02-17 19:02:00,
2013-02-17 11:07:00,57.6,47.8,30.04,SE,128,0.0,6.0,69,0.00,,,0.00,589.0,meteohub,2013-02-17 19:07:00,
2013-02-17 11:12:00,57.7,47.8,30.04,SE,140,4.0,7.0,68,0.00,,,0.00,596.0,meteohub,2013-02-17 19:12:00,
2013-02-17 11:17:00,57.9,48.0,30.04,SSE,154,2.0,7.0,68,0.00,,,0.00,601.0,meteohub,2013-02-17 19:17:00,
2013-02-17 11:22:00,58.3,48.0,30.04,South,175,2.0,7.0,67,0.00,,,0.00,610.0,meteohub,2013-02-17 19:22:00,
2013-02-17 11:28:00,58.6,48.2,30.04,South,169,4.0,6.0,67,0.00,,,0.00,617.0,meteohub,2013-02-17 19:28:00,
2013-02-17 11:33:00,59.0,47.5,30.04,SE,142,5.0,6.0,64,0.00,,,0.00,617.0,meteohub,2013-02-17 19:33:00,
2013-02-17 11:38:00,59.0,47.8,30.04,ESE,113,4.0,6.0,65,0.00,,,0.00,624.0,meteohub,2013-02-17 19:38:00,
2013-02-17 11:43:00,59.2,47.1,30.03,SSE,163,2.0,6.0,63,0.00,,,0.00,628.0,meteohub,2013-02-17 19:43:00,
2013-02-17 11:48:00,59.4,46.9,30.03,SE,129,4.0,6.0,62,0.00,,,0.00,631.0,meteohub,2013-02-17 19:48:00,
2013-02-17 11:53:00,59.4,47.3,30.03,ESE,123,2.0,6.0,63,0.00,,,0.00,281.0,meteohub,2013-02-17 19:53:00,
2013-02-17 11:58:00,59.7,47.3,30.03,SSE,163,0.0,6.0,62,0.00,,,0.00,640.0,meteohub,2013-02-17 19:58:00,
2013-02-17 12:03:00,59.5,46.6,30.02,SE,134,2.0,6.0,61,0.00,,,0.00,640.0,meteohub,2013-02-17 20:03:00,
2013-02-17 12:08:00,59.5,46.6,30.02,SSW,192,4.0,6.0,61,0.00,,,0.00,629.0,meteohub,2013-02-17 20:08:00,
2013-02-17 12:14:00,60.1,47.1,30.02,West,275,4.0,6.0,61,0.00,,,0.00,643.0,meteohub,2013-02-17 20:14:00,
2013-02-17 12:19:00,60.4,47.1,30.01,SW,216,4.0,6.0,60,0.00,,,0.00,647.0,meteohub,2013-02-17 20:19:00,
2013-02-17 12:24:00,61.0,47.1,30.01,SSW,211,2.0,6.0,59,0.00,,,0.00,643.0,meteohub,2013-02-17 20:24:00,
2013-02-17 12:29:00,61.3,46.9,30.01,SSW,192,1.0,6.0,58,0.00,,,0.00,642.0,meteohub,2013-02-17 20:29:00,
2013-02-17 12:34:00,61.7,46.4,30.01,SSW,212,1.0,5.0,56,0.00,,,0.00,642.0,meteohub,2013-02-17 20:34:00,
2013-02-17 12:39:00,61.9,46.2,30.00,WSW,245,1.0,5.0,55,0.00,,,0.00,642.0,meteohub,2013-02-17 20:39:00,
2013-02-17 12:44:00,62.1,46.0,30.00,WNW,299,3.0,5.0,54,0.00,,,0.00,643.0,meteohub,2013-02-17 20:44:00,
2013-02-17 12:49:00,61.7,44.0,29.99,NW,311,2.0,5.0,52,0.00,,,0.00,269,weatherlink.com 1.10,2013-02-17 20:49:00,
2013-02-17 12:55:00,62.4,45.3,30.00,NW,310,0.0,5.0,52,0.00,,,0.00,640.0,meteohub,2013-02-17 20:55:00,
2013-02-17 13:00:00,62.6,46.0,30.00,NNW,332,3.0,5.0,53,0.00,,,0.00,636.0,meteohub,2013-02-17 21:00:00,
2013-02-17 13:05:00,62.8,44.6,29.99,NE,55,4.0,5.0,50,0.00,,,0.00,631.0,meteohub,2013-02-17 21:05:00,
2013-02-17 13:10:00,62.6,46.0,29.99,NE,47,3.0,5.0,53,0.00,,,0.00,629.0,meteohub,2013-02-17 21:10:00,
2013-02-17 13:15:00,62.8,44.6,29.99,West,259,0.0,5.0,50,0.00,,,0.00,624.0,meteohub,2013-02-17 21:15:00,
2013-02-17 13:20:00,63.0,44.8,29.99,ESE,116,3.0,5.0,50,0.00,,,0.00,615.0,meteohub,2013-02-17 21:20:00,
2013-02-17 13:25:00,63.1,44.6,29.99,SE,134,3.0,6.0,49,0.00,,,0.00,615.0,meteohub,2013-02-17 21:25:00,
2013-02-17 13:30:00,63.3,45.1,29.99,SE,145,4.0,6.0,50,0.00,,,0.00,610.0,meteohub,2013-02-17 21:30:00,
2013-02-17 13:35:00,63.7,45.0,29.98,SSW,203,1.0,6.0,49,0.00,,,0.00,605.0,meteohub,2013-02-17 21:35:00,
2013-02-17 13:40:00,64.0,44.4,29.98,East,89,5.0,6.0,47,0.00,,,0.00,598.0,meteohub,2013-02-17 21:40:00,
2013-02-17 13:46:00,63.9,43.7,29.98,East,101,1.0,7.0,46,0.00,,,0.00,591.0,meteohub,2013-02-17 21:46:00,
2013-02-17 13:51:00,64.0,44.8,29.98,NE,37,2.0,7.0,48,0.00,,,0.00,584.0,meteohub,2013-02-17 21:51:00,
2013-02-17 13:56:00,64.4,44.6,29.98,SSE,148,0.0,6.0,47,0.00,,,0.00,575.0,meteohub,2013-02-17 21:56:00,
2013-02-17 14:01:00,64.6,44.6,29.97,NE,55,4.0,5.0,47,0.00,,,0.00,568.0,meteohub,2013-02-17 22:01:00,
2013-02-17 14:06:00,64.6,43.7,29.98,ENE,78,4.0,7.0,45,0.00,,,0.00,559.0,meteohub,2013-02-17 22:06:00,
2013-02-17 14:11:00,64.4,44.1,29.97,ENE,69,0.0,7.0,46,0.00,,,0.00,552.0,meteohub,2013-02-17 22:11:00,
2013-02-17 14:16:00,64.4,44.1,29.97,SE,130,0.0,7.0,46,0.00,,,0.00,541.0,meteohub,2013-02-17 22:16:00,
2013-02-17 14:21:00,64.6,43.7,29.97,East,101,3.0,6.0,45,0.00,,,0.00,531.0,meteohub,2013-02-17 22:21:00,
2013-02-17 14:26:00,64.4,44.1,29.97,ENE,65,2.0,6.0,46,0.00,,,0.00,520.0,meteohub,2013-02-17 22:26:00,
2013-02-17 14:31:00,64.6,43.7,29.97,ENE,59,2.0,5.0,45,0.00,,,0.00,512.0,meteohub,2013-02-17 22:31:00,
2013-02-17 14:36:00,64.6,43.7,29.97,ENE,59,0.0,5.0,45,0.00,,,0.00,499.0,meteohub,2013-02-17 22:36:00,
2013-02-17 14:42:00,64.8,42.6,29.97,NNW,343,4.0,4.0,43,0.00,,,0.00,490.0,meteohub,2013-02-17 22:42:00,
2013-02-17 14:47:00,65.1,41.7,29.97,WNW,288,1.0,5.0,41,0.00,,,0.00,480.0,meteohub,2013-02-17 22:47:00,
2013-02-17 14:52:00,65.3,41.4,29.97,NNE,24,1.0,5.0,40,0.00,,,0.00,468.0,meteohub,2013-02-17 22:52:00,
2013-02-17 14:57:00,65.7,40.3,29.97,SW,221,4.0,5.0,38,0.00,,,0.00,455.0,meteohub,2013-02-17 22:57:00,
2013-02-17 15:02:00,66.0,40.6,29.97,SSW,203,0.0,5.0,38,0.00,,,0.00,445.0,meteohub,2013-02-17 23:02:00,
2013-02-17 15:07:00,66.2,41.5,29.96,WSW,250,2.0,5.0,39,0.00,,,0.00,434.0,meteohub,2013-02-17 23:07:00,
2013-02-17 15:12:00,66.4,41.2,29.96,West,276,0.0,5.0,38,0.00,,,0.00,420.0,meteohub,2013-02-17 23:12:00,
2013-02-17 15:17:00,66.4,41.2,29.96,West,271,1.0,6.0,38,0.00,,,0.00,406.0,meteohub,2013-02-17 23:17:00,
2013-02-17 15:22:00,66.2,41.5,29.96,WSW,255,0.0,6.0,39,0.00,,,0.00,394.0,meteohub,2013-02-17 23:22:00,
2013-02-17 15:27:00,66.2,42.3,29.96,WSW,250,1.0,6.0,40,0.00,,,0.00,380.0,meteohub,2013-02-17 23:27:00,
2013-02-17 15:32:00,66.2,41.5,29.96,West,271,7.0,7.0,39,0.00,,,0.00,367.0,meteohub,2013-02-17 23:32:00,
2013-02-17 15:37:00,66.0,41.4,29.96,NW,321,1.0,7.0,39,0.00,,,0.00,352.0,meteohub,2013-02-17 23:37:00,
2013-02-17 15:42:00,65.8,41.2,29.96,NNW,338,1.0,7.0,39,0.00,,,0.00,343.0,meteohub,2013-02-17 23:42:00,
2013-02-17 15:47:00,65.7,41.7,29.96,WNW,291,4.0,7.0,40,0.00,,,0.00,327.0,meteohub,2013-02-17 23:47:00,
2013-02-17 15:52:00,65.5,40.8,29.96,NNW,336,4.0,5.0,39,0.00,,,0.00,309.0,meteohub,2013-02-17 23:52:00,
2013-02-17 15:57:00,65.3,41.9,29.96,WNW,288,2.0,6.0,41,0.00,,,0.00,294.0,meteohub,2013-02-17 23:57:00,
2013-02-17 16:02:00,65.1,42.4,29.96,West,274,4.0,6.0,42,0.00,,,0.00,251.0,meteohub,2013-02-18 00:02:00,
2013-02-17 16:07:00,65.1,43.7,29.96,SW,217,2.0,6.0,44,0.00,,,0.00,257.0,meteohub,2013-02-18 00:07:00,
2013-02-17 16:12:00,64.9,43.5,29.96,West,281,1.0,6.0,44,0.00,,,0.00,244.0,meteohub,2013-02-18 00:12:00,
2013-02-17 16:17:00,64.8,46.4,29.96,WSW,243,4.0,7.0,50,0.00,,,0.00,223.0,meteohub,2013-02-18 00:17:00,
2013-02-17 16:22:00,64.2,46.4,29.96,West,272,2.0,8.0,51,0.00,,,0.00,49.0,meteohub,2013-02-18 00:22:00,
2013-02-17 16:27:00,63.9,46.6,29.96,WSW,247,3.0,8.0,52,0.00,,,0.00,46.0,meteohub,2013-02-18 00:27:00,
2013-02-17 16:32:00,63.3,46.6,29.96,SW,230,1.0,8.0,53,0.00,,,0.00,42.0,meteohub,2013-02-18 00:32:00,
2013-02-17 16:37:00,63.0,46.4,29.96,West,279,2.0,7.0,53,0.00,,,0.00,40.0,meteohub,2013-02-18 00:37:00,
2013-02-17 16:42:00,62.6,46.0,29.96,WNW,282,5.0,7.0,53,0.00,,,0.00,37.0,meteohub,2013-02-18 00:42:00,
2013-02-17 16:48:00,62.4,45.9,29.96,SW,231,3.0,5.0,53,0.00,,,0.00,35.0,meteohub,2013-02-18 00:48:00,
2013-02-17 16:53:00,62.1,45.5,29.96,WSW,238,4.0,5.0,53,0.00,,,0.00,33.0,meteohub,2013-02-18 00:53:00,
2013-02-17 16:58:00,61.9,46.0,29.96,WSW,240,1.0,6.0,55,0.00,,,0.00,30.0,meteohub,2013-02-18 00:58:00,
2013-02-17 17:03:00,61.7,46.0,29.96,SW,236,4.0,6.0,55,0.00,,,0.00,28.0,meteohub,2013-02-18 01:03:00,
2013-02-17 17:08:00,61.5,45.9,29.96,WSW,255,2.0,6.0,55,0.00,,,0.00,26.0,meteohub,2013-02-18 01:08:00,
2013-02-17 17:13:00,61.2,45.9,29.96,SW,232,1.0,5.0,56,0.00,,,0.00,25.0,meteohub,2013-02-18 01:13:00,
2013-02-17 17:18:00,61.2,45.9,29.96,SW,232,1.0,5.0,56,0.00,,,0.00,21.0,meteohub,2013-02-18 01:18:00,
2013-02-17 17:23:00,60.8,46.0,29.96,SW,232,3.0,4.0,57,0.00,,,0.00,19.0,meteohub,2013-02-18 01:23:00,
2013-02-17 17:28:00,60.3,46.0,29.96,WNW,284,4.0,4.0,58,0.00,,,0.00,18.0,meteohub,2013-02-18 01:28:00,
2013-02-17 17:33:00,59.7,46.0,29.96,WSW,258,1.0,4.0,59,0.00,,,0.00,14.0,meteohub,2013-02-18 01:33:00,
2013-02-17 17:39:00,59.2,45.9,29.96,West,261,0.0,4.0,60,0.00,,,0.00,11.0,meteohub,2013-02-18 01:39:00,
2013-02-17 17:44:00,59.0,45.7,29.96,West,265,4.0,4.0,60,0.00,,,0.00,9.0,meteohub,2013-02-18 01:44:00,
2013-02-17 17:49:00,58.3,45.0,29.96,West,280,2.0,4.0,60,0.00,,,0.00,5.0,meteohub,2013-02-18 01:49:00,
2013-02-17 17:54:00,57.7,45.0,29.96,West,273,3.0,5.0,61,0.00,,,0.00,0.0,meteohub,2013-02-18 01:54:00,
2013-02-17 17:59:00,57.4,45.0,29.96,West,281,1.0,5.0,62,0.00,,,0.00,0.0,meteohub,2013-02-18 01:59:00,
2013-02-17 18:04:00,57.0,45.0,29.96,WNW,284,2.0,5.0,63,0.00,,,0.00,0.0,meteohub,2013-02-18 02:04:00,
2013-02-17 18:09:00,56.7,44.6,29.96,West,276,2.0,5.0,63,0.00,,,0.00,0.0,meteohub,2013-02-18 02:09:00,
2013-02-17 18:14:00,56.3,44.6,29.96,WSW,257,1.0,4.0,64,0.00,,,0.00,0.0,meteohub,2013-02-18 02:14:00,
2013-02-17 18:19:00,55.9,44.6,29.96,West,278,1.0,4.0,64,0.00,,,0.00,0.0,meteohub,2013-02-18 02:19:00,
2013-02-17 18:25:00,55.6,44.2,29.97,WNW,287,1.0,4.0,64,0.00,,,0.00,0.0,meteohub,2013-02-18 02:25:00,
2013-02-17 18:30:00,55.2,44.2,29.97,WNW,284,0.0,4.0,65,0.00,,,0.00,0.0,meteohub,2013-02-18 02:30:00,
2013-02-17 18:35:00,54.9,43.9,29.97,WNW,284,0.0,3.0,65,0.00,,,0.00,0.0,meteohub,2013-02-18 02:35:00,
2013-02-17 18:40:00,54.5,43.9,29.97,West,267,2.0,3.0,66,0.00,,,0.00,0.0,meteohub,2013-02-18 02:40:00,
2013-02-17 18:45:00,54.1,44.1,29.97,SW,225,1.0,5.0,67,0.00,,,0.00,0.0,meteohub,2013-02-18 02:45:00,
2013-02-17 18:50:00,54.0,44.2,29.97,SSW,192,1.0,5.0,68,0.00,,,0.00,0.0,meteohub,2013-02-18 02:50:00,
2013-02-17 18:55:00,53.8,44.1,29.97,SSW,192,0.0,4.0,68,0.00,,,0.00,0.0,meteohub,2013-02-18 02:55:00,
2013-02-17 19:00:00,53.4,43.7,29.97,SSW,192,0.0,3.0,68,0.00,,,0.00,0.0,meteohub,2013-02-18 03:00:00,
2013-02-17 19:05:00,53.2,43.5,29.97,SSW,192,0.0,1.0,68,0.00,,,0.00,0.0,meteohub,2013-02-18 03:05:00,
2013-02-17 19:10:00,53.2,43.3,29.97,SSW,192,0.0,2.0,68,0.00,,,0.00,0.0,meteohub,2013-02-18 03:10:00,
2013-02-17 19:15:00,53.1,43.5,29.97,SSW,192,0.0,2.0,69,0.00,,,0.00,0.0,meteohub,2013-02-18 03:15:00,
2013-02-17 19:21:00,52.7,43.5,29.97,SSW,192,0.0,2.0,70,0.00,,,0.00,0.0,meteohub,2013-02-18 03:21:00,
2013-02-17 19:26:00,52.5,43.3,29.97,SSW,192,0.0,1.0,70,0.00,,,0.00,0.0,meteohub,2013-02-18 03:26:00,
2013-02-17 19:31:00,52.2,43.2,29.97,SSW,192,0.0,1.0,70,0.00,,,0.00,0.0,meteohub,2013-02-18 03:31:00,
2013-02-17 19:36:00,51.8,42.8,29.98,SSW,192,0.0,1.0,70,0.00,,,0.00,0.0,meteohub,2013-02-18 03:36:00,
2013-02-17 19:41:00,51.4,42.8,29.98,SSW,192,0.0,1.0,71,0.00,,,0.00,0.0,meteohub,2013-02-18 03:41:00,
2013-02-17 19:46:00,50.9,42.3,29.98,SSW,192,0.0,1.0,71,0.00,,,0.00,0.0,meteohub,2013-02-18 03:46:00,
2013-02-17 19:51:00,50.5,42.3,29.98,SSW,192,0.0,1.0,72,0.00,,,0.00,0.0,meteohub,2013-02-18 03:51:00,
2013-02-17 19:56:00,50.4,42.4,29.98,SSW,192,0.0,1.0,73,0.00,,,0.00,0.0,meteohub,2013-02-18 03:56:00,
2013-02-17 20:01:00,50.0,42.4,29.98,SSW,192,0.0,1.0,74,0.00,,,0.00,0.0,meteohub,2013-02-18 04:01:00,
2013-02-17 20:06:00,49.8,42.3,29.99,SSW,192,0.0,1.0,74,0.00,,,0.00,0.0,meteohub,2013-02-18 04:06:00,
2013-02-17 20:12:00,49.6,42.1,29.98,SSW,192,1.0,0.0,74,0.00,,,0.00,0.0,meteohub,2013-02-18 04:12:00,
2013-02-17 20:17:00,49.5,42.3,29.99,SSW,192,0.0,1.0,75,0.00,,,0.00,0.0,meteohub,2013-02-18 04:17:00,
2013-02-17 20:22:00,49.1,41.5,29.99,SSW,192,1.0,1.0,74,0.00,,,0.00,0.0,meteohub,2013-02-18 04:22:00,
2013-02-17 20:27:00,48.9,41.7,29.99,SSW,200,0.0,2.0,75,0.00,,,0.00,0.0,meteohub,2013-02-18 04:27:00,
2013-02-17 20:32:00,48.9,41.9,29.99,SSW,200,0.0,3.0,76,0.00,,,0.00,0.0,meteohub,2013-02-18 04:32:00,
2013-02-17 20:37:00,48.7,41.4,29.99,SSW,200,0.0,3.0,75,0.00,,,0.00,0.0,meteohub,2013-02-18 04:37:00,
2013-02-17 20:42:00,48.4,41.0,29.98,SSW,200,0.0,2.0,75,0.00,,,0.00,0.0,meteohub,2013-02-18 04:42:00,
2013-02-17 20:47:00,48.2,40.8,29.99,SSW,200,0.0,1.0,75,0.00,,,0.00,0.0,meteohub,2013-02-18 04:47:00,
2013-02-17 20:52:00,48.0,41.0,29.99,SSW,200,0.0,1.0,76,0.00,,,0.00,0.0,meteohub,2013-02-18 04:52:00,
2013-02-17 20:57:00,47.8,40.8,29.99,SSW,200,0.0,1.0,76,0.00,,,0.00,0.0,meteohub,2013-02-18 04:57:00,
2013-02-17 21:00:00,47.5,40.8,29.99,SSW,200,0.0,1.0,77,0.00,,,0.00,0.0,meteohub,2013-02-18 05:00:00,
2013-02-17 21:01:00,47.5,40.5,29.99,SSW,200,0.0,2.0,76,0.00,,,0.00,0.0,meteohub,2013-02-18 05:01:00,
2013-02-17 21:06:00,47.1,40.3,29.99,SSW,200,0.0,2.0,76,0.00,,,0.00,0.0,meteohub,2013-02-18 05:06:00,
2013-02-17 21:11:00,46.9,40.3,29.99,WNW,297,3.0,3.0,77,0.00,,,0.00,0.0,meteohub,2013-02-18 05:11:00,
2013-02-17 21:16:00,46.6,40.3,29.99,WNW,297,0.0,3.0,78,0.00,,,0.00,0.0,meteohub,2013-02-18 05:16:00,
2013-02-17 21:22:00,46.2,40.1,30.00,WNW,297,0.0,3.0,78,0.00,,,0.00,0.0,meteohub,2013-02-18 05:22:00,
2013-02-17 21:27:00,46.0,40.3,30.00,WNW,297,1.0,3.0,79,0.00,,,0.00,0.0,meteohub,2013-02-18 05:27:00,
2013-02-17 21:32:00,45.9,40.1,30.00,WNW,298,0.0,2.0,79,0.00,,,0.00,0.0,meteohub,2013-02-18 05:32:00,
2013-02-17 21:37:00,45.5,39.7,30.00,WNW,297,0.0,3.0,79,0.00,,,0.00,0.0,meteohub,2013-02-18 05:37:00,
2013-02-17 21:42:00,45.3,39.9,30.00,WNW,298,2.0,3.0,80,0.00,,,0.00,0.0,meteohub,2013-02-18 05:42:00,
2013-02-17 21:47:00,45.1,39.7,30.00,WNW,298,0.0,3.0,80,0.00,,,0.00,0.0,meteohub,2013-02-18 05:47:00,
2013-02-17 21:52:00,44.8,39.4,30.00,WNW,297,0.0,3.0,80,0.00,,,0.00,0.0,meteohub,2013-02-18 05:52:00,
2013-02-17 21:57:00,44.6,39.6,30.00,NNW,329,0.0,3.0,81,0.00,,,0.00,0.0,meteohub,2013-02-18 05:57:00,
2013-02-17 22:02:00,44.6,39.4,30.00,NNW,329,2.0,3.0,81,0.00,,,0.00,0.0,meteohub,2013-02-18 06:02:00,
2013-02-17 22:07:00,44.4,39.2,30.00,NNW,329,3.0,3.0,81,0.00,,,0.00,0.0,meteohub,2013-02-18 06:07:00,
2013-02-17 22:12:00,44.2,39.0,30.00,NNW,338,0.0,3.0,81,0.00,,,0.00,0.0,meteohub,2013-02-18 06:12:00,
2013-02-17 22:17:00,44.1,39.2,30.00,North,0,1.0,3.0,82,0.00,,,0.00,0.0,meteohub,2013-02-18 06:17:00,
2013-02-17 22:22:00,43.9,39.0,30.01,North,0,2.0,3.0,82,0.00,,,0.00,0.0,meteohub,2013-02-18 06:22:00,
2013-02-17 22:27:00,43.7,38.8,30.00,North,0,0.0,3.0,82,0.00,,,0.00,0.0,meteohub,2013-02-18 06:27:00,
2013-02-17 22:32:00,43.5,38.7,30.00,North,0,0.0,3.0,82,0.00,,,0.00,0.0,meteohub,2013-02-18 06:32:00,
2013-02-17 22:37:00,43.2,38.5,30.00,North,0,0.0,3.0,83,0.00,,,0.00,0.0,meteohub,2013-02-18 06:37:00,
2013-02-17 22:42:00,43.2,38.5,30.00,North,0,0.0,2.0,83,0.00,,,0.00,0.0,meteohub,2013-02-18 06:42:00,
2013-02-17 22:47:00,43.0,38.3,30.01,North,0,1.0,2.0,83,0.00,,,0.00,0.0,meteohub,2013-02-18 06:47:00,
2013-02-17 22:52:00,42.8,38.1,30.01,North,0,0.0,3.0,83,0.00,,,0.00,0.0,meteohub,2013-02-18 06:52:00,
2013-02-17 22:57:00,42.6,38.1,30.01,North,0,2.0,3.0,83,0.00,,,0.00,0.0,meteohub,2013-02-18 06:57:00,
2013-02-17 23:02:00,42.6,38.1,30.01,North,0,0.0,3.0,83,0.00,,,0.00,0.0,meteohub,2013-02-18 07:02:00,
2013-02-17 23:07:00,42.4,37.9,30.01,North,0,0.0,3.0,83,0.00,,,0.00,0.0,meteohub,2013-02-18 07:07:00,
2013-02-17 23:12:00,42.3,37.9,30.01,North,0,0.0,3.0,84,0.00,,,0.00,0.0,meteohub,2013-02-18 07:12:00,
2013-02-17 23:17:00,42.3,37.9,30.01,North,0,0.0,3.0,84,0.00,,,0.00,0.0,meteohub,2013-02-18 07:17:00,
2013-02-17 23:22:00,42.1,37.8,30.01,North,0,2.0,2.0,84,0.00,,,0.00,0.0,meteohub,2013-02-18 07:22:00,
2013-02-17 23:27:00,41.9,37.6,30.01,North,355,1.0,3.0,84,0.00,,,0.00,0.0,meteohub,2013-02-18 07:27:00,
2013-02-17 23:32:00,41.7,37.4,30.01,North,351,1.0,4.0,84,0.00,,,0.00,0.0,meteohub,2013-02-18 07:32:00,
2013-02-17 23:37:00,41.7,37.4,30.01,North,351,0.0,4.0,84,0.00,,,0.00,0.0,meteohub,2013-02-18 07:37:00,
2013-02-17 23:42:00,41.5,37.2,30.01,North,351,1.0,3.0,84,0.00,,,0.00,0.0,meteohub,2013-02-18 07:42:00,
2013-02-17 23:47:00,41.4,37.0,30.01,North,351,0.0,3.0,84,0.00,,,0.00,0.0,meteohub,2013-02-18 07:47:00,
2013-02-17 23:52:00,41.2,36.9,30.01,North,351,0.0,2.0,84,0.00,,,0.00,0.0,meteohub,2013-02-18 07:52:00,
2013-02-17 23:57:00,41.0,36.7,30.01,North,351,2.0,3.0,84,0.00,,,0.00,0.0,meteohub,2013-02-18 07:57:00,